Wetbulb
57.47 57.62 58.67 55.90 46.62 45.25 43.05 44.21 46.65 46.20 46.74 51.66 52.48 51.35 51.21 53.90 52.66 49.38 62.63 62.67 65.23 66.04 66.65 66.71 67.59 67.24 66.76 66.18 65.71 65.35 65.27 65.13 64.93 64.43 65.01 64.39 64.17 64.39 64.98 65.75 66.68 67.60 68.36 68.41 68.22 67.91 67.95 68.49 69.47
55.72 56.55 56.39 52.58 42.24 40.54 41.87 46.30 43.78 46.87 50.01 51.36 51.43 51.15 50.61 50.53 56.58 56.95 59.71 63.75 64.09 64.78 65.42 64.81 66.01 65.76 65.43 64.74 64.00 63.73 63.74 63.64 63.72 63.43 62.80 62.71 63.07 63.18 63.54 63.57 63.79 64.81 65.88 66.26 66.33 66.27 65.94 65.99 66.59
55.86 56.20 51.11 46.10 43.07 39.98 42.51 44.60 45.89 47.52 49.56 50.67 50.13 52.00 51.58 50.71 55.26 59.33 62.40 64.24 63.87 63.54 63.20 63.41 64.62 64.46 64.04 63.15 62.63 62.52 62.82 62.67 62.32 62.01 61.80 61.94 62.08 62.52 62.00 61.79 62.33 63.04 63.64 63.72 63.86 63.58 63.31 63.51 64.00
53.70 53.04 50.22 42.69 41.48 44.49 44.59 46.22 46.96 47.98 49.73 50.86 51.20 48.67 51.02 53.30 55.60 60.23 63.15 63.99 63.74 62.97 62.40 62.87 63.37 63.25 62.62 61.92 61.79 62.09 61.65 61.53 61.06 60.70 60.57 60.29 60.57 60.49 60.41 60.16 60.51 60.52 60.75 61.31 61.32 60.70 60.40 60.44 60.75
54.15 51.46 43.85 42.29 42.63 45.67 47.00 47.00 47.52 46.96 48.60 49.79 50.51 48.75 49.24 52.33 56.29 60.91 62.18 63.39 63.28 62.48 61.69 61.58 62.32 61.81 61.50 61.26 61.31 60.88 60.42 60.04 59.85 59.38 59.15 58.81 58.95 58.84 58.59 58.91 59.10 58.89 58.95 59.27 59.31 58.58 57.89 57.48 57.56
47.82 48.86 41.65 40.44 43.09 46.08 46.63 47.91 47.90 47.09 48.65 48.63 48.35 49.15 50.04 54.10 55.77 59.81 61.92 62.81 63.32 62.49 61.96 60.73 60.03 60.99 60.53 60.06 59.89 59.25 58.80 58.56 58.19 57.52 57.04 57.06 56.62 56.61 56.97 57.26 57.20 57.17 57.51 57.62 57.41 56.68 55.99 55.45 55.49
46.48 44.75 41.95 43.58 43.75 44.15 45.31 47.13 45.85 46.41 47.11 47.88 49.94 47.19 49.83 52.47 57.01 59.73 61.15 62.41 62.21 61.88 61.31 60.27 59.12 58.39 59.11 58.63 57.79 57.31 56.85 56.04 55.29 54.89 54.28 53.67 53.75 53.59 53.57 54.45 55.06 55.12 55.33 55.28 54.94 54.35 53.46 53.22 53.27
47.52 46.25 42.38 44.04 42.46 43.39 47.29 45.46 46.41 45.71 46.01 48.74 50.26 46.29 47.73 52.37 57.10 59.14 60.39 60.50 60.54 60.01 59.66 58.90 58.05 57.65 57.32 56.21 55.31 54.66 54.24 53.07 52.01 50.88 50.18 49.90 49.76 50.22 50.45 51.04 51.61 51.89 52.04 52.49 52.22 52.10 51.56 50.92 50.38
48.48 42.26 40.91 43.27 43.79 44.58 46.47 44.30 46.99 46.95 45.79 46.28 48.64 48.04 50.39 54.33 56.64 57.11 57.25 57.87 57.88 57.58 57.79 57.35 56.07 55.69 56.13 55.20 52.31 51.62 51.15 50.20 49.03 48.26 46.60 48.78 50.68 50.07 50.25 47.27 47.91 48.63 48.59 49.32 49.92 50.17 49.79 49.80 50.71
43.98 42.28 43.86 47.57 47.44 45.55 46.48 45.32 46.62 44.35 44.82 45.03 45.98 48.06 50.83 53.45 54.46 54.38 54.75 54.77 55.32 55.23 55.80 55.39 54.27 53.51 54.11 53.15 51.74 51.21 49.34 50.32 49.73 49.75 49.48 49.95 49.55 47.70 47.60 46.96 44.64 45.29 45.78 46.73 48.18 48.41 49.09 50.28 51.03
44.20 42.14 47.53 47.29 46.41 46.29 45.36 44.41 46.04 44.27 44.38 46.45 46.13 47.26 48.89 51.12 52.64 53.46 54.34 55.11 55.06 55.70 55.42 54.22 52.76 52.43 52.21 50.49 50.77 50.30 50.10 49.95 49.68 49.22 49.18 49.04 49.25 49.50 49.34 49.32 49.13 49.14 48.34 48.93 49.25 49.46 49.51 49.32 49.51
41.48 45.10 46.14 47.29 46.48 44.02 43.55 46.19 44.57 44.95 47.04 48.92 49.00 49.05 48.96 49.30 50.65 52.27 53.43 54.29 54.84 54.70 54.64 53.70 52.34 51.02 50.83 50.44 49.79 50.08 49.25 49.31 49.07 48.77 48.16 49.07 48.76 48.63 48.16 47.98 47.95 48.40 48.34 47.97 48.54 48.29 48.56 48.29 48.65
41.81 44.09 45.72 45.98 44.36 44.08 45.08 43.64 44.38 45.82 48.52 48.74 47.74 47.26 48.26 48.75 49.94 51.81 53.25 54.29 54.58 53.51 53.56 52.61 51.83 50.22 49.99 49.59 49.75 49.37 48.88 48.37 48.43 47.97 47.57 48.12 47.93 47.63 47.37 47.12 47.13 47.11 47.34 47.11 46.77 46.81 46.69 46.99 47.47
45.13 43.65 44.97 44.14 43.56 43.63 42.03 43.22 44.68 45.93 48.42 47.97 46.05 46.04 47.09 47.97 48.84 50.10 51.20 52.14 52.66 52.48 52.28 52.03 50.42 50.07 49.68 49.04 49.02 48.73 48.54 48.01 47.50 47.48 47.38 46.62 47.03 46.78 46.37 46.25 46.19 46.24 46.30 46.05 45.58 45.13 45.07 45.44 46.38
44.39 40.38 42.23 42.84 43.17 43.01 43.99 40.24 42.09 46.35 47.41 46.89 47.41 46.18 46.66 46.30 47.21 47.95 49.72 49.78 51.32 51.63 52.17 51.83 49.97 49.45 48.81 48.43 48.25 48.05 47.65 46.85 46.81 46.75 46.15 46.02 45.89 45.75 45.12 45.31 45.11 45.47 45.35 45.00 45.20 44.98 45.30 45.29 46.14
39.34 40.72 36.90 43.78 43.65 43.55 42.44 38.98 45.72 47.74 46.34 45.58 46.28 46.49 45.58 45.48 44.67 46.06 47.12 47.83 49.65 50.25 49.83 50.84 49.51 48.52 47.94 47.83 47.46 46.94 46.75 46.48 46.50 46.11 45.97 45.12 44.82 44.32 44.44 44.35 44.47 44.72 44.21 44.16 43.85 43.77 43.63 44.18 44.90
38.89 34.80 36.69 40.65 44.88 43.07 40.29 39.75 46.49 47.19 46.71 44.43 45.60 45.49 45.11 45.23 44.90 44.73 44.33 44.66 45.48 46.41 48.13 49.16 48.70 47.24 47.25 47.09 46.42 46.02 45.93 45.68 45.79 45.40 45.01 44.65 43.66 43.40 43.35 43.70 43.91 43.49 43.10 43.10 42.91 42.59 43.14 42.57 43.58
34.42 34.59 37.64 39.03 40.70 41.27 38.64 39.08 45.23 43.41 43.37 43.77 45.29 45.15 45.14 44.62 44.82 44.96 43.53 43.64 44.23 45.14 46.14 48.29 48.16 46.84 46.38 45.99 45.20 45.19 44.70 44.73 44.73 44.32 43.93 43.14 43.13 42.87 42.70 42.93 42.75 42.54 41.87 42.02 42.26 41.47 42.56 42.56 42.77
38.92 39.01 37.74 41.02 44.12 39.46 38.71 39.73 42.41 45.18 42.09 42.64 43.89 43.98 43.93 43.77 45.68 42.91 41.92 42.31 42.89 44.31 45.47 46.75 46.31 45.84 45.11 43.67 42.94 42.95 42.56 43.40 43.17 43.37 42.84 42.39 42.30 41.92 41.65 41.74 41.72 41.71 40.71 40.78 40.66 40.54 40.43 41.37 43.36
36.78 35.53 36.61 40.55 41.29 37.08 38.13 38.89 42.67 44.15 44.37 42.65 43.31 43.67 43.39 43.40 42.65 40.97 41.16 41.70 42.15 43.10 44.53 45.42 45.15 44.42 44.27 44.10 44.22 44.64 44.20 44.15 43.71 42.84 41.68 41.59 41.13 41.07 40.59 40.59 40.52 40.47 39.52 39.82 39.94 39.92 39.24 40.72 41.57
35.56 34.08 35.73 36.05 38.32 37.13 35.11 34.68 38.44 42.43 44.14 45.13 44.96 44.83 44.39 43.34 40.83 40.26 39.97 40.57 41.71 41.75 43.33 43.90 44.04 43.35 43.41 43.72 42.99 41.27 41.01 40.80 39.67 39.85 40.02 40.29 39.93 39.68 39.61 39.58 39.27 39.17 39.01 38.41 39.37 39.41 38.76 37.86 41.00
30.73 38.34 37.53 35.69 34.23 29.36 36.78 29.41 39.41 43.86 42.89 43.01 44.04 43.64 44.09 43.58 41.90 40.76 39.47 39.97 41.13 41.66 42.66 42.96 42.76 42.41 42.40 42.05 40.59 40.26 40.01 39.63 41.48 41.21 40.93 39.88 39.17 38.39 38.56 38.57 38.24 38.11 38.43 37.82 38.58 39.27 38.37 37.81 37.42
32.99 37.57 35.75 34.75 32.33 32.01 32.10 27.17 35.89 42.24 41.02 41.80 40.42 42.54 41.49 41.99 41.17 40.12 39.76 40.21 41.15 41.03 41.19 41.67 41.49 40.91 40.48 40.24 40.62 40.01 39.15 39.96 40.16 39.23 38.04 38.19 38.38 37.83 37.49 37.47 37.31 36.90 37.30 37.42 37.20 37.12 37.09 36.46 35.76
37.40 33.26 32.31 32.27 30.66 23.47 29.84 28.64 32.70 38.14 38.09 41.46 41.57 39.23 38.51 39.84 39.77 40.20 40.31 39.76 39.74 40.32 40.46 40.72 39.83 39.24 39.39 38.91 38.61 38.29 38.07 38.15 37.72 37.40 36.77 37.08 37.37 37.15 36.61 36.38 36.28 36.36 36.24 36.20 36.50 35.78 34.56 34.38 33.90
33.41 30.54 24.60 21.52 21.27 22.26 32.38 28.43 32.79 40.90 41.99 41.49 41.94 36.68 37.16 38.74 38.65 38.60 37.52 37.09 38.07 37.76 38.35 38.48 38.19 37.49 38.11 37.64 37.52 37.34 37.07 37.11 36.43 36.31 36.28 35.98 35.92 35.74 35.70 35.74 35.18 35.19 35.62 35.67 35.45 34.34 33.32 33.30 32.92
30.84 30.92 27.09 19.48 21.16 24.53 27.87 26.72 32.72 36.39 32.80 32.85 35.66 36.17 36.67 36.62 37.50 36.91 37.08 37.37 37.27 37.42 37.80 37.59 36.88 36.81 37.20 36.84 36.68 36.81 36.43 36.11 36.11 35.92 35.60 35.23 35.53 36.08 35.98 35.36 35.05 35.07 34.86 34.44 33.89 33.24 33.54 33.40 33.73
30.64 28.78 34.93 25.77 23.35 24.53 24.94 29.12 35.38 34.54 30.92 30.09 33.08 35.32 35.03 35.72 36.47 36.51 37.20 37.49 37.20 36.65 36.87 37.25 36.75 36.50 36.49 36.09 35.99 35.58 35.32 34.59 34.64 34.86 34.61 34.31 34.61 34.70 32.64 32.16 33.16 32.51 33.43 33.14 33.14 32.25 32.17 32.34 32.65
32.55 35.99 26.10 28.22 20.15 19.84 26.61 27.92 31.51 30.97 31.30 30.15 30.19 33.65 34.58 35.71 35.66 35.24 34.91 35.18 35.49 35.68 35.27 34.61 34.41 33.79 33.64 34.15 34.41 34.07 34.08 33.71 34.10 33.44 31.45 32.74 33.03 33.21 31.76 30.46 30.11 30.07 30.75 31.63 31.43 30.73 32.09 31.40 32.02
30.33 29.59 31.17 31.66 29.60 24.71 24.20 31.12 32.59 33.63 33.48 30.86 30.73 33.95 34.79 34.64 33.96 32.94 33.13 33.39 30.47 29.48 28.11 29.63 29.17 29.18 29.02 30.26 31.81 32.35 32.32 32.32 32.12 30.23 30.49 30.59 31.09 30.07 29.31 29.37 29.20 28.49 29.22 29.54 29.35 30.38 31.30 30.58 30.78
34.29 32.90 32.19 27.53 24.77 27.21 26.04 30.16 28.28 28.00 30.09 32.19 31.66 33.28 34.32 33.86 33.23 33.09 32.16 29.30 28.40 28.11 27.54 27.17 26.61 25.64 26.98 27.46 28.86 29.70 30.06 30.04 29.30 29.08 29.11 29.49 28.77 29.55 29.09 29.10 27.97 28.65 28.59 29.11 27.99 28.42 30.42 30.09 29.94
MSLP
1012.70 1012.05 1012.15 1011.36 1010.25 1008.37 1006.31 1005.56 1005.59 1005.86 1006.14 1006.14 1006.44 1006.29 1006.45 1006.53 1007.41 1009.89 1011.40 1012.18 1012.40 1012.94 1013.47 1013.74 1013.93 1014.19 1014.26 1014.57 1014.90 1015.02 1015.09 1015.16 1015.22 1015.35 1015.27 1015.31 1015.36 1015.41 1015.44 1015.45 1015.42 1015.43 1015.39 1015.44 1015.56 1015.52 1015.56 1015.60 1015.30
1012.01 1011.82 1011.41 1010.16 1009.32 1006.90 1005.20 1005.10 1005.66 1005.59 1006.19 1006.87 1007.10 1007.24 1007.15 1007.24 1008.87 1010.62 1011.51 1012.21 1012.72 1013.11 1013.63 1014.09 1014.41 1014.55 1014.74 1015.11 1015.41 1015.42 1015.44 1015.49 1015.57 1015.67 1015.74 1015.79 1015.74 1015.79 1015.84 1015.89 1015.87 1015.80 1015.76 1015.80 1015.86 1015.94 1015.99 1015.95 1015.78
1012.32 1011.55 1010.36 1009.29 1008.04 1006.42 1004.91 1005.52 1005.42 1005.97 1006.86 1007.01 1007.16 1007.69 1007.52 1008.17 1009.78 1010.50 1011.58 1012.30 1012.81 1013.27 1014.00 1014.54 1014.74 1015.02 1015.25 1015.59 1015.65 1015.73 1015.78 1015.85 1015.97 1016.04 1016.13 1016.09 1016.14 1016.18 1016.23 1016.26 1016.28 1016.21 1016.21 1016.23 1016.31 1016.40 1016.35 1016.32 1016.25
1011.81 1011.11 1010.25 1008.96 1007.09 1006.40 1005.90 1005.86 1006.16 1006.54 1007.23 1007.40 1007.36 1007.55 1008.75 1010.01 1010.19 1010.81 1011.96 1012.36 1012.77 1013.34 1014.14 1014.85 1015.03 1015.34 1015.59 1015.70 1015.74 1015.92 1016.10 1016.13 1016.29 1016.49 1016.54 1016.55 1016.58 1016.58 1016.60 1016.71 1016.70 1016.69 1016.65 1016.67 1016.66 1016.70 1016.72 1016.72 1016.57
1011.35 1009.92 1008.84 1007.84 1006.68 1006.19 1006.34 1006.44 1006.68 1006.50 1006.59 1007.03 1007.70 1007.52 1008.78 1010.49 1011.17 1011.55 1012.09 1012.35 1012.63 1013.42 1014.35 1015.00 1015.35 1015.59 1015.73 1015.87 1015.90 1016.15 1016.30 1016.38 1016.59 1016.85 1016.97 1017.01 1017.08 1017.11 1017.13 1017.18 1017.19 1017.18 1017.08 1017.03 1017.08 1017.14 1017.16 1017.05 1016.91
1010.44 1009.39 1007.94 1006.66 1005.93 1005.59 1006.41 1006.63 1006.91 1006.79 1006.65 1007.06 1007.70 1007.87 1009.03 1010.78 1011.13 1011.52 1012.04 1012.25 1012.65 1013.36 1014.16 1015.18 1015.76 1015.90 1016.03 1016.19 1016.32 1016.54 1016.76 1016.91 1017.08 1017.26 1017.34 1017.34 1017.54 1017.57 1017.60 1017.62 1017.64 1017.56 1017.47 1017.45 1017.39 1017.40 1017.42 1017.36 1017.23
1009.91 1008.83 1007.39 1006.37 1005.50 1005.32 1005.79 1006.56 1006.84 1006.88 1006.70 1006.84 1007.44 1007.82 1009.32 1010.61 1011.16 1011.73 1012.07 1012.35 1012.93 1013.51 1014.12 1015.04 1015.65 1016.13 1016.28 1016.53 1016.75 1017.06 1017.36 1017.58 1017.75 1017.82 1017.84 1018.00 1018.08 1018.07 1018.09 1018.11 1018.07 1017.96 1017.86 1017.78 1017.72 1017.73 1017.68 1017.67 1017.56
1009.71 1008.64 1007.37 1006.15 1005.74 1005.33 1005.60 1006.69 1007.00 1007.22 1006.85 1007.68 1007.91 1007.89 1008.53 1009.92 1011.49 1012.14 1012.46 1012.75 1013.20 1013.94 1014.35 1014.85 1015.42 1015.78 1016.14 1016.75 1017.24 1017.51 1017.75 1017.96 1018.16 1018.26 1018.29 1018.35 1018.38 1018.34 1018.42 1018.29 1018.47 1018.36 1018.29 1018.22 1018.11 1018.05 1018.01 1017.82 1017.57
1010.17 1008.62 1006.61 1005.81 1005.55 1005.56 1006.28 1006.72 1007.07 1007.61 1007.51 1007.95 1008.36 1008.87 1009.96 1010.85 1011.86 1012.24 1012.72 1013.12 1013.42 1014.02 1014.52 1015.05 1015.53 1015.80 1016.02 1016.70 1017.53 1017.78 1018.03 1018.24 1018.39 1018.44 1018.56 1018.32 1018.13 1018.18 1018.26 1018.99 1018.88 1018.75 1018.65 1018.45 1018.38 1018.29 1018.13 1017.87 1017.48
1009.68 1007.91 1006.15 1005.81 1005.55 1005.85 1006.22 1006.80 1006.69 1007.55 1007.36 1007.64 1008.46 1009.78 1010.59 1011.30 1011.84 1012.03 1012.35 1012.70 1013.31 1013.92 1014.37 1014.93 1015.54 1015.96 1016.28 1016.58 1017.36 1017.41 1017.87 1017.75 1017.90 1018.05 1018.17 1018.24 1018.33 1018.67 1018.62 1018.84 1018.94 1018.83 1018.67 1018.42 1018.28 1018.21 1018.05 1017.66 1017.10
1009.01 1007.15 1006.20 1005.90 1006.33 1006.49 1006.55 1006.89 1007.05 1007.03 1006.54 1006.64 1007.13 1008.52 1010.20 1010.88 1011.37 1011.65 1011.93 1012.19 1012.82 1013.53 1014.25 1014.77 1015.27 1015.81 1016.19 1016.54 1017.07 1017.36 1017.56 1017.78 1018.00 1018.16 1018.25 1018.32 1018.24 1018.40 1018.40 1018.39 1018.40 1018.45 1018.35 1018.07 1018.00 1017.75 1017.64 1017.81 1017.64
1008.76 1007.45 1006.95 1006.40 1006.50 1007.29 1006.74 1006.75 1006.67 1006.70 1005.95 1006.39 1006.70 1007.44 1009.20 1010.05 1010.48 1010.93 1011.35 1011.88 1012.39 1013.03 1013.73 1014.62 1015.10 1015.56 1016.00 1016.47 1016.94 1017.05 1017.40 1017.71 1017.87 1018.14 1018.36 1018.22 1018.18 1018.46 1018.60 1018.59 1018.58 1018.56 1018.47 1018.37 1018.20 1018.04 1017.97 1017.83 1017.72
1008.78 1007.54 1007.10 1007.06 1007.43 1007.33 1007.24 1006.71 1006.56 1005.91 1006.20 1006.65 1007.28 1008.10 1008.65 1009.30 1009.78 1010.33 1010.83 1011.51 1012.18 1012.79 1013.38 1014.31 1014.91 1015.35 1015.80 1016.37 1016.64 1017.04 1017.32 1017.63 1017.78 1018.17 1018.50 1018.46 1018.42 1018.59 1018.71 1018.80 1018.77 1018.74 1018.61 1018.40 1018.33 1018.19 1018.00 1017.82 1017.58
1008.34 1008.15 1007.24 1007.54 1007.51 1007.56 1007.34 1006.76 1006.72 1005.54 1006.11 1006.33 1007.20 1007.58 1008.18 1008.74 1009.29 1010.01 1010.67 1011.16 1011.92 1012.73 1013.21 1013.90 1014.77 1015.19 1015.59 1016.12 1016.59 1016.97 1017.35 1017.69 1017.96 1018.15 1018.37 1018.65 1018.69 1018.74 1018.72 1018.75 1018.79 1018.77 1018.81 1018.76 1018.67 1018.50 1018.28 1017.87 1017.51
1008.65 1008.56 1007.82 1007.19 1007.74 1007.39 1007.87 1006.60 1005.55 1005.46 1005.97 1006.00 1006.40 1007.07 1007.67 1008.60 1009.13 1009.50 1010.20 1011.13 1011.76 1012.40 1013.09 1013.59 1014.42 1015.02 1015.39 1015.90 1016.47 1016.89 1017.28 1017.73 1017.92 1018.10 1018.57 1018.77 1018.90 1018.81 1018.87 1018.71 1018.74 1018.75 1018.96 1018.92 1018.60 1018.39 1018.11 1017.85 1017.30
1009.19 1008.34 1007.17 1006.44 1006.88 1007.54 1007.96 1004.18 1004.21 1004.72 1005.19 1005.38 1006.10 1006.69 1007.50 1008.42 1009.36 1009.72 1010.45 1011.11 1011.59 1012.13 1012.65 1013.41 1014.12 1014.86 1015.31 1015.74 1016.33 1016.77 1017.22 1017.53 1017.80 1018.14 1018.35 1018.75 1018.94 1019.07 1018.99 1018.83 1018.66 1018.85 1018.98 1018.82 1018.68 1018.45 1018.17 1017.82 1017.44
1008.28 1006.96 1006.52 1005.86 1005.71 1006.73 1007.43 1004.49 1003.75 1004.18 1004.28 1004.93 1005.53 1006.36 1007.13 1008.03 1009.17 1010.14 1010.94 1011.48 1011.95 1012.39 1012.67 1013.08 1014.02 1014.79 1015.37 1015.82 1016.39 1016.77 1017.10 1017.43 1017.70 1018.03 1018.30 1018.57 1018.92 1019.04 1019.05 1018.94 1018.93 1019.11 1018.96 1018.79 1018.73 1018.59 1018.39 1017.98 1017.52
1006.80 1006.84 1005.93 1005.19 1005.98 1006.36 1006.34 1004.99 1004.09 1004.88 1004.99 1004.81 1005.03 1005.90 1006.50 1007.32 1008.32 1009.67 1010.92 1011.53 1011.92 1012.36 1012.69 1012.93 1013.74 1014.58 1015.28 1015.89 1016.47 1016.81 1017.23 1017.48 1017.63 1017.89 1018.22 1018.54 1018.79 1018.96 1019.03 1018.89 1019.04 1019.15 1019.03 1018.85 1018.70 1018.67 1018.43 1018.20 1017.78
1006.76 1005.94 1005.24 1005.15 1005.31 1006.40 1005.70 1004.80 1004.17 1004.09 1004.82 1004.82 1004.67 1005.31 1006.16 1006.85 1007.93 1009.78 1010.88 1011.55 1011.91 1012.16 1012.28 1012.58 1013.47 1014.41 1015.18 1015.69 1016.16 1016.63 1016.87 1017.26 1017.62 1017.89 1018.33 1018.64 1018.75 1018.98 1019.01 1018.84 1018.88 1019.02 1019.05 1018.92 1018.93 1018.73 1018.42 1018.05 1017.73
1007.23 1006.38 1005.33 1005.74 1005.96 1006.94 1005.95 1004.16 1003.71 1003.53 1003.11 1004.04 1004.21 1004.73 1005.58 1006.69 1007.99 1009.60 1010.51 1011.15 1011.59 1011.89 1012.15 1012.58 1013.38 1014.36 1015.01 1015.44 1015.73 1016.03 1016.48 1016.88 1017.22 1017.83 1018.32 1018.51 1018.70 1018.93 1019.02 1018.94 1018.99 1019.09 1019.12 1018.95 1018.91 1018.82 1018.54 1018.01 1017.98
1006.95 1006.54 1005.92 1006.23 1006.72 1007.29 1006.99 1004.20 1003.46 1002.81 1002.76 1002.75 1003.10 1003.92 1004.95 1005.94 1007.45 1009.07 1010.20 1010.93 1011.33 1011.75 1012.20 1012.74 1013.43 1014.27 1014.85 1015.25 1015.75 1016.40 1016.90 1017.28 1017.52 1017.81 1018.07 1018.26 1018.65 1018.83 1019.11 1019.06 1019.08 1019.08 1019.17 1018.94 1018.84 1018.83 1018.74 1018.31 1017.82
1007.11 1006.69 1006.72 1006.98 1007.45 1007.11 1006.98 1003.45 1002.02 1000.94 1000.80 1001.59 1002.24 1003.26 1004.01 1005.34 1007.17 1008.54 1009.64 1010.66 1011.24 1011.57 1012.28 1012.90 1013.65 1014.22 1014.78 1015.36 1015.86 1016.05 1016.24 1016.36 1016.46 1016.88 1017.44 1017.98 1018.49 1018.67 1018.85 1019.10 1019.05 1019.16 1019.00 1018.96 1018.84 1018.79 1018.92 1018.86 1018.16
1006.69 1007.71 1007.39 1007.71 1007.62 1007.77 1007.16 1006.46 999.42 1001.05 1000.01 1000.72 1002.16 1002.85 1004.31 1005.43 1006.93 1008.07 1009.07 1010.11 1011.15 1011.91 1012.29 1012.96 1013.70 1014.35 1014.85 1015.40 1015.65 1015.91 1016.16 1016.32 1016.59 1017.05 1017.63 1018.00 1018.19 1018.49 1018.74 1018.95 1019.01 1019.15 1019.02 1018.91 1019.00 1019.01 1019.03 1019.18 1019.07
1008.12 1009.30 1009.29 1008.94 1008.61 1007.15 1005.80 1006.10 1000.06 1000.87 1000.18 1000.77 1001.75 1003.06 1004.40 1005.53 1007.07 1008.19 1009.23 1010.29 1011.02 1011.86 1012.42 1013.04 1013.73 1014.31 1014.88 1015.39 1015.77 1016.02 1016.19 1016.43 1016.72 1016.97 1017.35 1017.57 1017.85 1018.19 1018.62 1018.88 1019.02 1018.99 1018.99 1018.88 1018.88 1019.14 1019.42 1019.56 1019.58
1008.91 1009.18 1009.11 1009.01 1008.12 1005.71 1005.06 1005.65 1001.53 1000.05 1000.70 1001.38 1001.57 1003.04 1004.51 1005.66 1007.01 1008.01 1009.27 1010.18 1011.01 1011.76 1012.40 1013.15 1013.75 1014.22 1014.79 1015.34 1015.72 1016.11 1016.37 1016.57 1016.89 1016.99 1017.10 1017.28 1017.71 1018.02 1018.31 1018.61 1018.79 1018.81 1018.88 1018.80 1018.96 1019.18 1019.47 1019.66 1019.64
1006.79 1006.86 1006.67 1006.53 1006.22 1004.98 1005.21 1003.57 1000.73 1001.02 1001.91 1002.71 1002.98 1003.86 1004.99 1006.08 1007.00 1008.16 1009.17 1010.12 1011.05 1011.77 1012.40 1013.17 1013.81 1014.31 1014.77 1015.31 1015.73 1016.01 1016.43 1016.61 1016.75 1016.88 1017.18 1017.37 1017.72 1018.14 1018.34 1018.46 1018.58 1018.64 1018.85 1018.81 1019.04 1019.29 1019.46 1019.59 1019.67
1006.83 1006.02 1005.71 1005.99 1005.77 1004.70 1004.01 1002.61 1001.44 1001.61 1002.91 1003.78 1004.27 1004.60 1005.52 1006.43 1007.43 1008.28 1009.29 1010.31 1011.27 1012.05 1012.67 1013.27 1013.93 1014.48 1014.90 1015.35 1015.69 1015.90 1016.37 1016.55 1016.59 1016.90 1017.31 1017.71 1017.93 1018.27 1018.75 1019.10 1019.03 1019.20 1019.33 1019.32 1019.41 1019.43 1019.43 1019.56 1019.66
1005.46 1004.54 1005.99 1005.36 1004.51 1003.92 1002.45 1002.17 1001.22 1001.92 1002.98 1004.25 1004.79 1004.96 1006.03 1006.77 1007.87 1008.91 1010.02 1010.95 1011.86 1012.50 1013.32 1013.98 1014.60 1015.12 1015.49 1015.50 1015.85 1016.10 1016.29 1016.51 1016.90 1017.27 1017.57 1017.84 1018.20 1018.45 1018.62 1018.97 1019.06 1019.16 1019.24 1019.24 1019.43 1019.34 1019.26 1019.32 1019.38
1005.23 1004.33 1004.43 1004.08 1003.67 1002.38 1001.81 1001.31 1001.64 1002.16 1002.76 1003.88 1004.83 1005.23 1006.06 1007.28 1008.50 1009.59 1010.60 1011.62 1012.82 1013.68 1014.41 1014.78 1015.25 1015.66 1015.89 1016.05 1016.18 1016.28 1016.33 1016.58 1017.04 1017.26 1017.56 1017.77 1018.01 1018.26 1018.45 1018.63 1018.79 1018.86 1018.91 1018.90 1019.07 1019.05 1018.96 1018.91 1018.97
1002.91 1002.76 1002.59 1002.38 1002.78 1002.41 1002.46 1001.76 1002.63 1003.41 1003.91 1004.29 1004.97 1005.64 1006.85 1008.03 1009.15 1010.24 1011.29 1012.56 1013.36 1014.16 1014.67 1015.14 1015.58 1016.00 1016.14 1016.32 1016.43 1016.36 1016.51 1016.72 1016.96 1017.02 1017.26 1017.63 1017.80 1017.92 1018.13 1018.26 1018.57 1018.54 1018.54 1018.59 1018.69 1018.68 1018.65 1018.56 1018.59
Wind_Speed
7 5 4 5 7 7 12 6 6 6 6 2 5 4 4 7 3 3 9 5 10 12 11 11 12 13 14 14 12 11 11 12 12 12 13 13 13 14 14 14 14 13 14 13 12 12 12 12 13
3 4 5 3 8 10 10 10 9 7 5 3 3 5 6 3 7 9 8 10 11 11 10 10 11 13 13 11 10 11 11 12 13 13 13 13 13 13 14 14 13 13 13 12 12 12 12 11 11
5 5 5 5 9 13 8 1 7 3 4 5 4 2 3 5 5 10 8 14 12 11 11 10 12 12 12 11 11 11 12 12 12 13 13 13 13 14 14 13 13 13 13 13 11 11 11 11 11
6 5 4 8 14 11 11 1 1 5 4 6 4 5 5 5 5 6 13 13 14 12 12 10 12 12 12 11 12 12 12 12 12 12 12 12 13 13 13 12 12 12 12 12 11 11 11 11 11
6 4 9 12 16 16 5 7 5 6 2 8 8 4 3 5 6 11 13 12 13 12 13 11 11 12 12 12 12 12 12 12 12 11 11 12 12 12 12 11 11 11 10 10 11 11 10 10 10
6 5 9 14 17 13 7 10 10 11 9 5 6 7 6 7 9 11 12 12 11 11 12 12 8 9 11 11 12 11 11 11 11 11 11 12 12 12 11 11 11 10 10 10 10 10 10 10 10
12 8 15 18 15 10 9 2 11 12 14 13 2 9 5 9 8 11 12 12 11 11 11 11 11 10 11 11 11 10 10 10 10 10 11 11 11 11 11 11 10 10 9 9 9 8 8 8 8
8 7 16 15 14 18 8 6 3 8 10 5 1 7 7 11 11 10 10 10 10 10 10 10 10 10 10 9 9 10 10 10 10 9 9 9 9 9 9 7 9 9 8 8 8 8 8 7 5
5 9 12 19 15 10 6 8 7 1 6 5 7 3 6 13 12 11 10 10 10 9 9 9 8 7 8 9 8 10 10 9 9 7 3 3 4 4 5 8 7 8 8 7 8 9 9 9 9
12 11 17 17 12 7 7 10 8 8 11 11 11 6 9 12 12 13 13 13 12 12 11 9 9 8 8 6 8 6 7 5 4 3 3 3 4 4 3 3 1 0 4 3 6 6 9 8 6
9 17 16 12 10 10 11 10 8 9 13 13 15 15 12 14 13 13 13 12 14 13 10 11 10 9 8 6 5 3 3 3 3 3 2 2 1 2 2 2 3 4 4 4 6 6 5 7 6
14 18 18 11 11 8 14 10 10 16 16 2 8 4 16 16 15 15 14 13 13 13 13 12 11 10 9 5 5 4 3 3 3 3 1 0 0 2 2 3 4 4 4 6 5 4 6 6 7
20 19 11 16 9 15 10 15 16 16 16 8 7 8 15 14 14 12 13 12 12 13 13 13 12 10 9 7 5 4 4 4 3 3 2 1 0 1 2 3 3 4 5 5 5 6 6 6 7
7 19 16 13 17 12 15 18 14 16 17 17 14 15 13 13 13 11 12 13 13 12 13 13 12 11 10 8 7 5 4 4 3 2 2 1 1 2 2 3 3 4 4 5 6 6 7 7 6
13 14 12 16 16 16 13 21 26 23 11 15 20 17 15 13 13 14 14 12 13 12 11 12 13 12 11 10 8 6 5 4 4 3 3 2 2 2 3 3 3 3 4 6 5 6 6 7 6
11 16 20 16 21 9 13 22 21 25 21 19 17 16 13 15 13 10 7 7 9 10 13 12 11 12 11 10 8 6 5 5 4 3 3 3 2 3 4 3 3 3 4 4 5 6 6 6 6
15 14 20 20 11 14 18 17 17 7 14 18 18 17 15 14 13 11 9 8 9 10 11 13 13 13 12 9 7 6 6 5 4 3 3 4 3 3 4 3 3 4 4 4 4 5 6 6 6
15 17 20 17 12 17 17 23 9 8 12 16 17 17 17 16 16 12 8 7 8 9 11 13 12 13 12 8 7 5 5 4 4 4 3 3 3 4 4 3 3 3 4 5 4 6 6 7 6
21 20 21 19 15 14 20 22 21 17 13 15 17 18 17 17 12 9 8 6 7 9 12 13 14 14 10 9 8 7 6 6 5 3 3 4 3 4 4 4 4 4 5 5 6 5 7 6 4
23 22 27 18 4 7 15 23 20 21 20 21 19 18 19 16 13 11 9 8 7 8 10 13 14 14 11 8 7 4 6 4 4 4 4 5 4 4 4 4 4 5 5 6 5 5 5 5 3
24 24 22 20 6 11 13 24 22 24 24 22 22 19 20 20 17 14 11 9 9 10 11 12 13 13 11 9 6 4 3 2 4 5 5 5 5 5 5 5 5 5 5 5 4 4 5 5 3
24 24 21 17 10 13 8 16 18 19 27 25 21 20 18 18 16 15 14 12 11 10 10 11 11 12 10 9 8 9 6 6 5 2 3 3 5 6 5 6 5 6 4 6 4 4 4 3 5
20 13 13 17 16 12 16 8 17 16 22 21 19 19 17 15 16 17 15 13 11 10 10 10 11 10 9 8 7 6 6 4 3 3 5 6 5 5 6 6 6 6 4 5 4 4 4 3 4
2 3 3 1 4 10 19 13 28 19 12 17 17 16 16 18 17 15 13 12 11 10 10 9 10 9 8 7 7 6 6 6 5 5 5 5 4 4 6 6 6 6 5 5 5 3 4 5 4
12 10 5 6 7 8 11 15 25 8 6 8 12 17 16 16 17 16 15 13 12 11 10 8 9 9 8 8 7 7 6 6 7 6 5 5 4 5 6 6 7 5 6 5 4 4 5 5 4
25 20 9 10 8 8 5 13 13 1 3 3 1 11 16 18 15 15 14 12 11 10 10 9 9 8 8 8 8 7 7 5 5 5 5 4 4 3 4 4 6 6 6 6 6 5 4 4 3
8 15 6 3 1 1 7 7 17 9 6 6 5 16 17 16 15 14 13 11 10 9 8 8 8 7 7 7 6 7 7 7 5 4 4 4 5 3 3 3 3 5 4 3 2 3 3 2 2
7 13 6 5 6 7 9 7 13 8 10 10 12 17 16 15 14 12 11 10 8 7 6 5 3 2 2 4 5 6 6 5 3 2 5 4 2 3 4 6 7 7 6 5 6 5 5 5 4
8 7 6 2 4 5 3 5 1 1 9 14 13 15 16 14 12 11 10 9 7 5 3 3 3 3 3 4 5 5 5 4 3 5 5 5 4 6 7 7 7 8 6 6 7 7 6 7 6
14 7 14 8 8 5 3 8 1 2 3 10 15 14 12 11 10 9 9 8 6 5 4 3 3 2 2 3 5 5 5 5 6 6 6 5 6 6 7 6 8 7 7 6 9 9 7 7 7
Wind_Direction
239 196 253 237 239 235 252 232 233 195 199 193 304 218 251 340 327 30 114 136 131 116 114 105 102 105 93 96 103 106 102 97 91 83 79 75 70 67 65 63 57 53 52 51 49 44 35 32 27
183 181 201 256 255 233 240 204 204 211 83 180 154 224 245 128 70 111 144 147 138 124 118 108 101 101 101 103 107 102 101 93 89 81 76 73 70 67 63 58 56 55 55 54 52 49 38 31 31
227 216 229 222 239 250 277 65 244 128 164 189 195 283 350 75 84 128 106 140 148 137 108 104 102 107 110 117 109 104 99 92 85 81 77 73 71 68 62 57 55 53 53 49 45 40 36 29 21
190 190 218 243 246 247 278 357 271 194 162 202 238 209 115 39 116 99 142 151 147 138 121 118 120 127 127 118 112 106 102 97 93 87 83 77 74 71 66 61 57 51 48 45 43 38 31 23 19
219 243 236 233 244 263 252 283 263 239 209 184 197 215 127 120 114 133 147 160 148 147 126 136 134 131 130 123 116 112 107 101 95 88 83 77 72 68 64 59 54 49 46 44 40 33 27 21 14
202 260 236 233 240 230 246 269 243 242 234 163 221 243 118 126 160 152 154 159 152 147 143 134 113 123 124 117 113 108 104 100 98 95 88 82 76 70 64 58 52 44 41 39 36 30 18 13 8
245 216 248 257 256 245 238 241 240 250 240 226 244 235 94 160 150 158 163 154 154 146 146 144 140 115 96 102 102 102 100 95 91 88 84 80 75 71 66 56 51 43 39 34 27 20 14 3 358
252 253 256 249 251 248 193 189 220 241 255 59 13 236 205 151 153 160 159 157 155 156 155 151 144 155 141 127 96 106 106 99 92 87 87 95 96 84 65 56 46 41 30 21 14 5 354 343 342
251 240 236 243 249 248 138 215 172 64 249 204 185 299 77 125 150 157 170 173 167 170 173 165 161 158 150 138 116 115 112 111 117 115 107 202 55 49 70 60 39 33 17 11 2 352 338 318 267
214 233 237 250 262 243 214 230 204 213 203 216 195 142 138 151 172 178 185 188 189 185 181 176 173 169 163 149 163 155 150 163 138 120 85 69 56 51 17 103 97 198 7 296 345 330 311 281 333
214 240 241 247 254 255 239 221 204 223 234 223 215 184 177 177 188 200 200 201 197 192 187 187 180 173 177 166 170 175 166 155 136 114 92 79 59 22 18 351 356 349 7 346 337 333 338 338 327
254 243 258 261 222 223 224 233 221 231 233 310 245 220 176 192 196 204 207 206 196 196 194 189 186 182 186 172 192 174 179 169 171 125 121 15 42 14 2 354 341 337 345 333 337 331 326 315 310
234 255 244 239 228 228 244 237 236 244 237 202 205 184 188 200 206 208 212 204 201 202 195 190 189 189 185 191 182 181 172 197 143 166 131 328 355 336 331 341 323 328 331 329 327 322 320 311 302
215 247 244 241 232 231 230 241 239 245 239 226 216 212 209 211 203 203 207 205 199 202 202 191 193 196 186 191 185 182 178 155 186 173 142 162 298 310 311 311 320 315 332 332 324 322 311 307 302
248 254 239 238 233 234 234 254 233 240 217 233 226 221 218 216 223 217 202 208 203 203 206 196 190 194 190 193 185 182 179 179 182 177 178 200 269 302 309 299 307 323 325 308 305 307 304 299 294
233 236 250 232 214 214 194 255 224 231 228 224 228 221 211 205 201 199 196 211 217 207 201 196 189 189 190 190 181 183 171 193 180 187 192 194 233 281 290 295 296 333 301 312 308 312 307 302 300
219 242 228 241 213 188 209 262 250 182 203 216 219 215 207 208 197 191 193 200 209 211 217 197 190 188 188 183 178 180 179 195 186 191 205 195 236 257 273 283 300 310 301 301 309 308 303 301 296
218 219 242 239 178 209 215 245 234 199 222 224 220 219 217 215 209 192 192 208 211 214 213 205 186 184 178 169 174 177 178 198 195 208 216 215 234 256 268 274 277 291 294 290 296 302 299 294 290
242 244 239 244 243 211 234 244 243 228 216 228 218 213 212 214 201 175 189 194 203 212 202 195 183 180 174 174 178 183 197 196 201 212 211 235 233 242 259 268 275 273 281 296 297 295 293 291 297
240 248 253 260 183 225 260 255 249 248 230 222 224 217 215 208 192 192 186 179 188 188 193 182 182 176 181 180 183 191 197 200 219 188 209 224 224 232 259 263 278 280 285 278 280 287 297 283 280
229 233 239 248 184 241 279 273 252 244 242 237 221 223 215 211 197 190 181 179 169 174 177 178 176 175 181 178 161 161 139 183 201 214 228 216 230 230 243 261 262 270 268 273 278 275 285 294 279
231 226 237 237 243 246 181 277 257 244 227 226 227 220 224 207 194 186 175 168 169 158 158 166 168 174 174 171 182 192 206 218 214 238 223 224 224 248 246 249 254 257 263 265 264 258 282 283 277
236 232 238 234 234 247 238 258 257 236 241 220 222 218 216 198 191 184 173 166 158 153 157 160 164 169 169 179 196 201 221 236 253 231 247 246 244 237 251 244 243 248 249 255 262 269 268 292 293
115 88 75 150 205 230 221 208 270 242 235 227 212 206 197 191 185 177 167 160 159 160 161 164 167 173 173 185 196 216 228 241 240 233 242 244 242 235 228 235 240 243 248 245 248 241 260 258 250
160 154 200 203 206 230 191 204 240 262 240 261 217 181 181 171 179 171 167 169 167 168 170 170 179 182 185 195 205 211 229 236 246 249 253 254 246 240 236 222 230 233 235 242 248 242 245 244 245
191 193 205 216 200 216 175 207 240 17 126 34 353 165 164 173 171 169 170 169 167 171 172 176 184 192 191 202 213 213 221 228 232 240 253 257 252 248 265 241 248 249 249 239 239 239 230 237 240
161 211 223 134 210 196 189 259 283 185 185 185 171 168 174 173 169 164 159 163 161 170 173 182 189 198 197 210 214 214 215 224 242 247 258 264 267 244 143 250 256 266 267 274 273 246 225 223 248
204 158 173 211 184 223 209 244 240 185 203 186 182 181 174 166 162 156 159 157 151 150 147 158 177 92 223 215 221 222 221 218 217 217 239 257 279 277 239 242 239 241 234 224 223 234 223 216 220
171 168 202 213 223 217 239 231 341 299 199 184 181 174 168 159 156 154 148 136 103 105 120 135 160 188 210 221 237 233 234 217 194 226 237 235 236 244 245 244 241 241 232 225 229 231 230 218 220
237 199 193 202 192 247 345 257 38 12 357 163 166 160 150 148 147 144 133 133 137 137 131 134 139 193 216 239 243 240 239 229 226 225 227 230 240 239 244 239 247 237 232 225 232 234 222 227 222